TimeEST,TemperatureF,Dew PointF,Humidity,Sea Level PressureIn,VisibilityMPH,Wind Direction,Wind SpeedMPH,Gust SpeedMPH,PrecipitationIn,Events,Conditions,WindDirDegrees,DateUTC
12:14 AM,52.9,48.6,85,30.14,7.0,East,3.5,-,N/A,,Overcast,100,2012-12-03 05:14:00
12:35 AM,52.7,47.5,82,30.14,7.0,Calm,Calm,-,N/A,,Overcast,0,2012-12-03 05:35:00
12:54 AM,52.3,47.5,84,30.15,7.0,East,4.6,-,N/A,,Overcast,90,2012-12-03 05:54:00
1:15 AM,51.3,47.5,87,30.15,5.0,East,6.9,-,N/A,,Overcast,90,2012-12-03 06:15:00
1:35 AM,50.4,46.6,87,30.14,5.0,ESE,5.8,-,N/A,,Overcast,120,2012-12-03 06:35:00
1:54 AM,50.0,46.0,86,30.14,7.0,East,5.8,-,N/A,,Overcast,90,2012-12-03 06:54:00
2:15 AM,49.3,45.5,87,30.14,5.0,East,3.5,-,N/A,,Mostly Cloudy,90,2012-12-03 07:15:00
2:35 AM,48.7,45.3,88,30.15,5.0,East,4.6,-,N/A,,Clear,80,2012-12-03 07:35:00
2:55 AM,47.5,44.4,89,30.15,4.0,Calm,Calm,-,N/A,,Clear,0,2012-12-03 07:55:00
3:15 AM,46.8,44.2,91,30.16,3.0,ENE,4.6,-,N/A,,Clear,70,2012-12-03 08:15:00
3:34 AM,46.4,43.9,91,30.16,3.0,Calm,Calm,-,N/A,,Clear,0,2012-12-03 08:34:00
3:55 AM,46.4,44.2,92,30.17,2.5,ENE,3.5,-,N/A,,Scattered Clouds,60,2012-12-03 08:55:00
4:15 AM,46.4,44.1,92,30.17,3.0,Calm,Calm,-,N/A,,Mostly Cloudy,0,2012-12-03 09:15:00
4:35 AM,45.7,43.7,93,30.16,3.0,Calm,Calm,-,N/A,,Overcast,0,2012-12-03 09:35:00
4:55 AM,45.7,43.7,93,30.16,2.5,ENE,3.5,-,N/A,,Overcast,60,2012-12-03 09:55:00
5:15 AM,46.4,44.1,92,30.16,3.0,Calm,Calm,-,N/A,,Overcast,0,2012-12-03 10:15:00
5:35 AM,46.4,44.4,93,30.16,4.0,ENE,3.5,-,N/A,,Overcast,60,2012-12-03 10:35:00
5:55 AM,46.6,44.2,92,30.15,5.0,ENE,3.5,-,N/A,,Overcast,70,2012-12-03 10:55:00
6:14 AM,46.8,44.1,90,30.15,4.0,ENE,4.6,-,N/A,,Overcast,60,2012-12-03 11:14:00
6:35 AM,46.8,44.1,90,30.16,4.0,Calm,Calm,-,N/A,,Overcast,0,2012-12-03 11:35:00
6:55 AM,46.8,44.1,90,30.16,4.0,Calm,Calm,-,N/A,,Overcast,0,2012-12-03 11:55:00
7:14 AM,46.8,44.1,90,30.16,4.0,ENE,4.6,-,N/A,,Overcast,60,2012-12-03 12:14:00
7:35 AM,47.3,44.6,90,30.15,5.0,East,3.5,-,N/A,,Overcast,90,2012-12-03 12:35:00
7:55 AM,47.3,44.6,90,30.15,3.0,Calm,Calm,-,N/A,,Overcast,0,2012-12-03 12:55:00
8:14 AM,47.7,44.8,90,30.15,3.0,Calm,Calm,-,N/A,,Overcast,0,2012-12-03 13:14:00
8:35 AM,48.2,45.3,90,30.15,3.0,Calm,Calm,-,N/A,,Overcast,0,2012-12-03 13:35:00
8:54 AM,48.7,46.0,90,30.15,2.5,ENE,4.6,-,N/A,,Overcast,60,2012-12-03 13:54:00
9:15 AM,48.9,46.4,91,30.15,1.5,NE,3.5,-,N/A,,Overcast,40,2012-12-03 14:15:00
9:35 AM,48.6,46.4,92,30.15,1.2,Calm,Calm,-,N/A,,Overcast,0,2012-12-03 14:35:00
9:54 AM,49.1,47.1,93,30.15,0.5,Calm,Calm,-,N/A,Fog,Fog,0,2012-12-03 14:54:00
10:15 AM,49.5,47.7,94,30.15,0.2,Calm,Calm,-,N/A,Fog,Fog,0,2012-12-03 15:15:00
10:35 AM,50.4,48.6,94,30.14,0.2,Calm,Calm,-,N/A,Fog,Fog,0,2012-12-03 15:35:00
10:55 AM,51.3,49.5,94,30.14,0.2,Calm,Calm,-,N/A,Fog,Fog,0,2012-12-03 15:55:00
11:15 AM,51.8,50.0,94,30.13,0.2,Calm,Calm,-,N/A,Fog,Fog,0,2012-12-03 16:15:00
11:35 AM,52.7,51.1,94,30.12,0.2,Calm,Calm,-,N/A,Fog,Fog,0,2012-12-03 16:35:00
11:55 AM,53.6,51.8,94,30.11,0.2,Calm,Calm,-,N/A,Fog,Fog,0,2012-12-03 16:55:00
12:14 PM,54.1,52.5,94,30.10,0.2,Calm,Calm,-,N/A,Fog,Fog,0,2012-12-03 17:14:00
12:35 PM,54.9,53.2,94,30.09,0.2,Calm,Calm,-,N/A,Fog,Fog,0,2012-12-03 17:35:00
12:55 PM,55.4,53.6,94,30.08,0.2,Calm,Calm,-,N/A,Fog,Fog,0,2012-12-03 17:55:00
1:15 PM,55.9,54.3,94,30.07,0.2,SSE,3.5,-,N/A,Fog,Fog,150,2012-12-03 18:15:00
1:35 PM,56.3,54.7,94,30.06,0.8,SSE,4.6,-,N/A,,Overcast,160,2012-12-03 18:35:00
1:55 PM,57.2,55.4,94,30.05,0.8,SSE,5.8,-,N/A,,Overcast,150,2012-12-03 18:55:00
2:15 PM,57.2,55.6,94,30.05,0.5,SSE,5.8,-,N/A,Fog,Fog,160,2012-12-03 19:15:00
2:35 PM,57.6,55.9,94,30.04,0.2,SSE,6.9,-,N/A,Fog,Fog,150,2012-12-03 19:35:00
2:55 PM,57.7,56.3,95,30.03,0.2,SSE,9.2,-,N/A,Fog,Fog,160,2012-12-03 19:55:00
3:15 PM,58.1,56.5,94,30.03,0.2,SSE,8.1,-,N/A,Fog,Fog,160,2012-12-03 20:15:00
3:35 PM,58.3,56.7,94,30.03,0.2,South,5.8,-,N/A,Fog,Fog,170,2012-12-03 20:35:00
3:55 PM,58.6,57.2,95,30.03,0.2,South,6.9,-,N/A,Rain,Rain,170,2012-12-03 20:55:00
4:15 PM,59.0,57.2,94,30.02,0.2,South,6.9,-,N/A,Fog,Fog,170,2012-12-03 21:15:00
4:34 PM,59.0,57.4,94,30.02,0.5,SSE,6.9,-,N/A,Fog,Fog,160,2012-12-03 21:34:00
4:55 PM,59.7,58.1,94,30.02,1.0,South,6.9,-,N/A,,Overcast,180,2012-12-03 21:55:00
5:15 PM,60.4,59.0,95,30.02,2.5,South,9.2,-,N/A,,Overcast,170,2012-12-03 22:15:00
5:34 PM,60.8,59.0,94,30.02,2.5,South,8.1,-,N/A,,Overcast,180,2012-12-03 22:34:00
5:55 PM,61.0,59.4,94,30.01,3.0,South,10.4,-,N/A,,Overcast,180,2012-12-03 22:55:00
6:15 PM,61.3,59.7,94,30.01,4.0,South,9.2,-,N/A,,Overcast,180,2012-12-03 23:15:00
6:34 PM,61.7,59.9,94,30.01,4.0,South,6.9,-,N/A,,Overcast,170,2012-12-03 23:34:00
6:55 PM,61.9,59.9,93,30.00,5.0,South,10.4,16.1,N/A,,Overcast,180,2012-12-03 23:55:00
7:15 PM,62.1,59.2,90,30.00,7.0,South,9.2,18.4,N/A,,Overcast,180,2012-12-04 00:15:00
7:35 PM,62.1,59.0,90,30.00,7.0,South,11.5,17.3,N/A,,Mostly Cloudy,180,2012-12-04 00:35:00
7:54 PM,62.1,58.5,88,29.99,7.0,South,13.8,23.0,N/A,,Scattered Clouds,190,2012-12-04 00:54:00
8:15 PM,61.9,58.3,88,29.99,7.0,South,16.1,-,N/A,,Mostly Cloudy,190,2012-12-04 01:15:00
8:35 PM,61.7,58.1,88,29.99,7.0,South,12.7,18.4,N/A,,Overcast,190,2012-12-04 01:35:00
8:54 PM,61.7,58.1,88,29.98,7.0,South,11.5,19.6,N/A,,Overcast,190,2012-12-04 01:54:00
9:15 PM,61.2,57.9,89,29.98,7.0,South,12.7,16.1,N/A,,Overcast,190,2012-12-04 02:15:00
9:35 PM,60.8,57.4,88,29.96,7.0,South,12.7,19.6,N/A,,Mostly Cloudy,190,2012-12-04 02:35:00
9:54 PM,60.1,57.0,90,29.95,7.0,South,12.7,18.4,N/A,,Scattered Clouds,190,2012-12-04 02:54:00
10:15 PM,59.5,56.7,90,29.95,7.0,South,10.4,17.3,N/A,,Scattered Clouds,190,2012-12-04 03:15:00
10:34 PM,59.4,56.5,90,29.95,7.0,South,9.2,16.1,N/A,,Scattered Clouds,190,2012-12-04 03:34:00
10:55 PM,59.5,56.5,90,29.95,7.0,South,10.4,-,N/A,,Scattered Clouds,190,2012-12-04 03:55:00
11:15 PM,59.5,56.5,90,29.95,7.0,SSW,9.2,-,N/A,,Scattered Clouds,200,2012-12-04 04:15:00
11:34 PM,59.9,56.5,88,29.95,10.0,South,8.1,-,N/A,,Scattered Clouds,190,2012-12-04 04:34:00
11:55 PM,60.1,56.5,88,29.95,10.0,South,9.2,-,N/A,,Scattered Clouds,190,2012-12-04 04:55:00